Time,TemperatureF,DewpointF,PressureIn,WindDirection,WindDirectionDegrees,WindSpeedMPH,WindSpeedGustMPH,Humidity,HourlyPrecipIn,Conditions,Clouds,dailyrainin,SoftwareType,DateUTC
2013-02-01 00:03:00,46.1,41.2,29.69,WNW,293,3.1,7.6,83,0.00,,,0.00,WUHU216HW,2013-02-01 00:03:00,
2013-02-01 00:08:00,45.9,41.4,29.69,SSW,203,3.4,7.6,84,0.00,,,0.00,WUHU216HW,2013-02-01 00:08:00,
2013-02-01 00:13:00,45.7,41.5,29.69,South,180,4.5,6.3,85,0.00,,,0.00,WUHU216HW,2013-02-01 00:13:00,
2013-02-01 00:18:00,45.5,41.3,29.69,WSW,248,1.3,5.4,85,0.00,,,0.00,WUHU216HW,2013-02-01 00:18:00,
2013-02-01 00:23:00,45.4,41.4,29.69,SW,225,3.6,5.4,86,0.00,,,0.00,WUHU216HW,2013-02-01 00:23:00,
2013-02-01 00:28:00,45.4,41.4,29.68,SSW,203,1.8,6.0,86,0.00,,,0.00,WUHU216HW,2013-02-01 00:28:00,
2013-02-01 00:33:00,45.4,41.4,29.68,South,180,0.4,6.0,86,0.00,,,0.00,WUHU216HW,2013-02-01 00:33:00,
2013-02-01 00:38:00,45.4,41.4,29.68,South,180,1.1,5.8,86,0.00,,,0.00,WUHU216HW,2013-02-01 00:38:00,
2013-02-01 00:43:00,45.2,41.2,29.68,South,180,1.3,3.8,86,0.00,,,0.00,WUHU216HW,2013-02-01 00:43:00,
2013-02-01 00:48:00,45.4,41.4,29.68,WNW,293,2.5,4.3,86,0.00,,,0.00,WUHU216HW,2013-02-01 00:48:00,
2013-02-01 00:53:00,45.4,41.4,29.68,SSW,203,1.1,5.4,86,0.00,,,0.00,WUHU216HW,2013-02-01 00:53:00,
2013-02-01 00:58:00,45.4,41.1,29.68,SSE,158,1.3,5.4,85,0.00,,,0.00,WUHU216HW,2013-02-01 00:58:00,
2013-02-01 01:03:00,45.4,41.1,29.67,NNW,338,4.0,4.7,85,0.00,,,0.00,WUHU216HW,2013-02-01 01:03:00,
2013-02-01 01:08:00,45.4,41.1,29.66,WSW,248,1.8,4.7,85,0.00,,,0.00,WUHU216HW,2013-02-01 01:08:00,
2013-02-01 01:13:00,45.4,41.1,29.66,South,180,2.5,5.1,85,0.00,,,0.00,WUHU216HW,2013-02-01 01:13:00,
2013-02-01 01:18:00,45.4,41.1,29.65,SW,225,2.2,5.4,85,0.00,,,0.00,WUHU216HW,2013-02-01 01:18:00,
2013-02-01 01:23:00,45.4,41.1,29.65,South,180,0.9,5.4,85,0.00,,,0.00,WUHU216HW,2013-02-01 01:23:00,
2013-02-01 01:28:00,45.4,41.1,29.65,West,270,0.7,3.8,85,0.00,,,0.00,WUHU216HW,2013-02-01 01:28:00,
2013-02-01 01:33:00,45.4,41.1,29.65,WSW,248,0.9,3.8,85,0.00,,,0.00,WUHU216HW,2013-02-01 01:33:00,
2013-02-01 01:38:00,45.4,41.1,29.65,WSW,248,3.1,3.1,85,0.00,,,0.00,WUHU216HW,2013-02-01 01:38:00,
2013-02-01 01:43:00,45.5,41.3,29.65,WSW,248,1.6,3.4,85,0.00,,,0.00,WUHU216HW,2013-02-01 01:43:00,
2013-02-01 01:48:00,45.5,41.3,29.65,SW,225,0.4,5.4,85,0.00,,,0.00,WUHU216HW,2013-02-01 01:48:00,
2013-02-01 01:53:00,45.7,41.5,29.65,WSW,248,0.9,5.4,85,0.00,,,0.00,WUHU216HW,2013-02-01 01:53:00,
2013-02-01 01:58:00,45.7,41.5,29.64,WSW,248,0.7,3.1,85,0.00,,,0.00,WUHU216HW,2013-02-01 01:58:00,
2013-02-01 02:03:00,45.7,41.5,29.64,SSW,203,0.4,2.5,85,0.00,,,0.00,WUHU216HW,2013-02-01 02:03:00,
2013-02-01 02:08:00,45.7,41.5,29.64,SW,225,0.2,2.9,85,0.00,,,0.00,WUHU216HW,2013-02-01 02:08:00,
2013-02-01 02:13:00,45.7,41.5,29.64,SW,225,1.1,2.9,85,0.00,,,0.00,WUHU216HW,2013-02-01 02:13:00,
2013-02-01 02:18:00,45.7,41.5,29.64,WSW,248,0.4,2.5,85,0.00,,,0.00,WUHU216HW,2013-02-01 02:18:00,
2013-02-01 02:23:00,45.7,41.8,29.64,West,270,1.1,2.5,86,0.00,,,0.00,WUHU216HW,2013-02-01 02:23:00,
2013-02-01 02:28:00,45.7,42.1,29.64,West,270,1.6,1.8,87,0.00,,,0.00,WUHU216HW,2013-02-01 02:28:00,
2013-02-01 02:33:00,45.5,42.2,29.64,SW,225,4.0,4.3,88,0.00,,,0.00,WUHU216HW,2013-02-01 02:33:00,
2013-02-01 02:38:00,45.4,42.4,29.64,WNW,293,2.0,4.3,89,0.02,,,0.02,WUHU216HW,2013-02-01 02:38:00,
2013-02-01 02:43:00,45.0,42.3,29.64,West,270,2.0,4.0,90,0.02,,,0.02,WUHU216HW,2013-02-01 02:43:00,
2013-02-01 02:48:00,44.8,42.1,29.64,WSW,248,1.1,3.8,90,0.02,,,0.02,WUHU216HW,2013-02-01 02:48:00,
2013-02-01 02:53:00,44.6,42.2,29.63,WSW,248,0.7,3.8,91,0.02,,,0.02,WUHU216HW,2013-02-01 02:53:00,
2013-02-01 02:58:00,44.5,41.8,29.63,WSW,248,2.2,3.8,90,0.02,,,0.02,WUHU216HW,2013-02-01 02:58:00,
2013-02-01 03:03:00,44.3,41.6,29.63,West,270,2.5,4.0,90,0.02,,,0.02,WUHU216HW,2013-02-01 03:03:00,
2013-02-01 03:08:00,44.1,41.4,29.63,West,270,2.5,4.0,90,0.02,,,0.02,WUHU216HW,2013-02-01 03:08:00,
2013-02-01 03:13:00,44.1,41.4,29.63,WSW,248,0.2,4.0,90,0.02,,,0.02,WUHU216HW,2013-02-01 03:13:00,
2013-02-01 03:18:00,43.9,41.2,29.62,WSW,248,0.7,1.8,90,0.02,,,0.02,WUHU216HW,2013-02-01 03:18:00,
2013-02-01 03:23:00,43.9,41.2,29.61,SW,225,1.1,1.8,90,0.02,,,0.02,WUHU216HW,2013-02-01 03:23:00,
2013-02-01 03:28:00,43.9,41.2,29.61,SW,225,1.3,1.3,90,0.03,,,0.03,WUHU216HW,2013-02-01 03:28:00,
2013-02-01 03:33:00,43.9,41.5,29.60,WSW,248,0.4,1.8,91,0.03,,,0.03,WUHU216HW,2013-02-01 03:33:00,
2013-02-01 03:38:00,43.7,41.0,29.60,SW,225,0.0,1.8,90,0.02,,,0.03,WUHU216HW,2013-02-01 03:38:00,
2013-02-01 03:43:00,43.7,41.3,29.59,SSW,203,0.2,1.6,91,0.02,,,0.03,WUHU216HW,2013-02-01 03:43:00,
2013-02-01 03:48:00,43.6,41.1,29.59,SW,225,0.2,2.7,91,0.02,,,0.03,WUHU216HW,2013-02-01 03:48:00,
2013-02-01 03:53:00,43.6,41.4,29.58,South,180,1.1,2.7,92,0.02,,,0.03,WUHU216HW,2013-02-01 03:53:00,
2013-02-01 03:58:00,43.6,41.1,29.58,SSW,203,0.4,2.2,91,0.01,,,0.03,WUHU216HW,2013-02-01 03:58:00,
2013-02-01 04:03:00,43.6,41.4,29.58,SW,225,1.1,2.7,92,0.02,,,0.05,WUHU216HW,2013-02-01 04:03:00,
2013-02-01 04:08:00,43.4,41.2,29.57,SW,225,0.4,2.7,92,0.02,,,0.05,WUHU216HW,2013-02-01 04:08:00,
2013-02-01 04:13:00,43.4,41.2,29.57,WSW,248,0.4,1.8,92,0.02,,,0.05,WUHU216HW,2013-02-01 04:13:00,
2013-02-01 04:18:00,43.2,41.0,29.57,SSW,203,0.2,1.8,92,0.02,,,0.05,WUHU216HW,2013-02-01 04:18:00,
2013-02-01 04:23:00,43.2,41.0,29.56,SSW,203,0.4,1.1,92,0.02,,,0.05,WUHU216HW,2013-02-01 04:23:00,
2013-02-01 04:28:00,43.2,41.0,29.56,WSW,248,0.4,1.8,92,0.01,,,0.05,WUHU216HW,2013-02-01 04:28:00,
2013-02-01 04:33:00,43.2,41.0,29.55,WSW,248,0.4,1.8,92,0.01,,,0.05,WUHU216HW,2013-02-01 04:33:00,
2013-02-01 04:38:00,43.2,41.0,29.55,SW,225,0.4,1.3,92,0.01,,,0.05,WUHU216HW,2013-02-01 04:38:00,
2013-02-01 04:43:00,43.2,41.0,29.55,WSW,248,0.2,1.1,92,0.01,,,0.05,WUHU216HW,2013-02-01 04:43:00,
2013-02-01 04:48:00,43.2,41.0,29.55,SSW,203,0.0,1.1,92,0.01,,,0.05,WUHU216HW,2013-02-01 04:48:00,
2013-02-01 04:53:00,43.2,41.0,29.55,SSW,203,0.0,1.1,92,0.01,,,0.05,WUHU216HW,2013-02-01 04:53:00,
2013-02-01 04:58:00,43.2,41.0,29.54,South,180,0.4,1.8,92,0.01,,,0.05,WUHU216HW,2013-02-01 04:58:00,
2013-02-01 05:00:00,43.2,41.0,29.54,South,180,0.2,1.8,92,0.01,,,0.05,WUHU216HW,2013-02-01 05:00:00,
2013-02-01 05:01:00,43.2,41.0,29.54,South,180,0.4,1.8,92,0.01,,,0.05,WUHU216HW,2013-02-01 05:01:00,
2013-02-01 05:06:00,43.2,41.0,29.54,South,180,0.0,1.8,92,0.01,,,0.06,WUHU216HW,2013-02-01 05:06:00,
2013-02-01 05:11:00,43.2,41.0,29.53,South,180,0.7,1.1,92,0.01,,,0.06,WUHU216HW,2013-02-01 05:11:00,
2013-02-01 05:16:00,43.2,41.0,29.53,South,180,0.9,1.1,92,0.01,,,0.06,WUHU216HW,2013-02-01 05:16:00,
2013-02-01 05:21:00,43.2,41.0,29.52,South,180,0.9,1.3,92,0.01,,,0.06,WUHU216HW,2013-02-01 05:21:00,
2013-02-01 05:26:00,43.0,41.1,29.52,South,180,0.4,2.5,93,0.01,,,0.06,WUHU216HW,2013-02-01 05:26:00,
2013-02-01 05:31:00,43.0,41.1,29.52,SW,225,1.1,2.5,93,0.01,,,0.06,WUHU216HW,2013-02-01 05:31:00,
2013-02-01 05:36:00,42.8,41.0,29.52,WNW,293,0.9,2.0,93,0.01,,,0.06,WUHU216HW,2013-02-01 05:36:00,
2013-02-01 05:41:00,42.8,41.0,29.51,SSW,203,0.2,1.8,93,0.02,,,0.07,WUHU216HW,2013-02-01 05:41:00,
2013-02-01 05:46:00,42.8,41.0,29.51,SW,225,0.2,2.0,93,0.02,,,0.07,WUHU216HW,2013-02-01 05:46:00,
2013-02-01 05:51:00,42.8,41.0,29.50,SSE,158,0.4,2.0,93,0.02,,,0.07,WUHU216HW,2013-02-01 05:51:00,
2013-02-01 05:56:00,42.8,41.0,29.50,South,180,1.3,1.8,93,0.02,,,0.07,WUHU216HW,2013-02-01 05:56:00,
2013-02-01 06:01:00,42.8,41.0,29.50,SSW,203,0.0,1.8,93,0.02,,,0.07,WUHU216HW,2013-02-01 06:01:00,
2013-02-01 06:06:00,42.8,41.0,29.50,WSW,248,0.2,2.2,93,0.01,,,0.07,WUHU216HW,2013-02-01 06:06:00,
2013-02-01 06:11:00,42.7,40.8,29.49,SW,225,0.4,2.5,93,0.01,,,0.07,WUHU216HW,2013-02-01 06:11:00,
2013-02-01 06:16:00,42.7,40.8,29.48,SW,225,0.4,2.5,93,0.01,,,0.07,WUHU216HW,2013-02-01 06:16:00,
2013-02-01 06:21:00,42.7,40.8,29.48,SW,225,0.4,2.5,93,0.02,,,0.08,WUHU216HW,2013-02-01 06:21:00,
2013-02-01 06:26:00,42.5,40.6,29.47,South,180,0.4,2.5,93,0.02,,,0.08,WUHU216HW,2013-02-01 06:26:00,
2013-02-01 06:31:00,42.5,40.6,29.47,WNW,293,1.3,1.3,93,0.02,,,0.08,WUHU216HW,2013-02-01 06:31:00,
2013-02-01 06:36:00,42.3,40.4,29.47,West,270,0.4,1.8,93,0.02,,,0.08,WUHU216HW,2013-02-01 06:36:00,
2013-02-01 06:41:00,42.1,40.2,29.47,SSW,203,0.4,2.5,93,0.01,,,0.08,WUHU216HW,2013-02-01 06:41:00,
2013-02-01 06:46:00,42.1,40.2,29.47,SSW,203,0.4,2.5,93,0.01,,,0.08,WUHU216HW,2013-02-01 06:46:00,
2013-02-01 06:51:00,42.1,40.2,29.47,WSW,248,0.7,1.8,93,0.01,,,0.08,WUHU216HW,2013-02-01 06:51:00,
2013-02-01 06:56:00,41.9,40.1,29.46,WSW,248,0.7,1.8,93,0.02,,,0.09,WUHU216HW,2013-02-01 06:56:00,
2013-02-01 07:01:00,41.9,40.1,29.46,WSW,248,0.4,1.8,93,0.02,,,0.09,WUHU216HW,2013-02-01 07:01:00,
2013-02-01 07:06:00,41.9,40.1,29.45,WSW,248,0.4,1.8,93,0.02,,,0.09,WUHU216HW,2013-02-01 07:06:00,
2013-02-01 07:11:00,41.8,39.9,29.45,WSW,248,0.7,0.9,93,0.02,,,0.09,WUHU216HW,2013-02-01 07:11:00,
2013-02-01 07:16:00,41.8,39.9,29.45,WSW,248,0.4,0.9,93,0.03,,,0.10,WUHU216HW,2013-02-01 07:16:00,
2013-02-01 07:21:00,41.6,39.4,29.45,West,270,1.3,1.8,92,0.02,,,0.10,WUHU216HW,2013-02-01 07:21:00,
2013-02-01 07:26:00,41.6,39.4,29.45,West,270,0.4,1.8,92,0.02,,,0.10,WUHU216HW,2013-02-01 07:26:00,
2013-02-01 07:31:00,41.6,39.4,29.44,West,270,0.2,1.3,92,0.02,,,0.10,WUHU216HW,2013-02-01 07:31:00,
2013-02-01 07:36:00,41.6,39.4,29.43,West,270,0.2,1.3,92,0.02,,,0.10,WUHU216HW,2013-02-01 07:36:00,
2013-02-01 07:41:00,41.4,39.2,29.43,West,270,0.7,1.1,92,0.03,,,0.11,WUHU216HW,2013-02-01 07:41:00,
2013-02-01 07:46:00,41.4,39.2,29.43,West,270,0.7,1.3,92,0.03,,,0.11,WUHU216HW,2013-02-01 07:46:00,
2013-02-01 07:51:00,41.4,39.2,29.43,WNW,293,1.8,2.5,92,0.03,,,0.11,WUHU216HW,2013-02-01 07:51:00,
2013-02-01 07:56:00,41.2,39.1,29.44,West,270,1.8,2.5,92,0.02,,,0.11,WUHU216HW,2013-02-01 07:56:00,
2013-02-01 08:01:00,41.2,39.1,29.44,WNW,293,0.2,2.5,92,0.02,,,0.11,WUHU216HW,2013-02-01 08:01:00,
2013-02-01 08:06:00,41.2,38.8,29.44,West,270,0.2,2.5,91,0.02,,,0.11,WUHU216HW,2013-02-01 08:06:00,
2013-02-01 08:11:00,41.2,39.1,29.43,West,270,0.2,1.8,92,0.03,,,0.12,WUHU216HW,2013-02-01 08:11:00,
2013-02-01 08:16:00,41.2,39.1,29.42,SW,225,0.0,1.1,92,0.02,,,0.12,WUHU216HW,2013-02-01 08:16:00,
2013-02-01 08:21:00,41.2,39.1,29.42,WSW,248,0.2,1.1,92,0.02,,,0.12,WUHU216HW,2013-02-01 08:21:00,
2013-02-01 08:26:00,41.0,38.6,29.42,SW,225,0.2,1.1,91,0.02,,,0.12,WUHU216HW,2013-02-01 08:26:00,
2013-02-01 08:31:00,41.2,39.1,29.42,West,270,0.0,0.9,92,0.02,,,0.12,WUHU216HW,2013-02-01 08:31:00,
2013-02-01 08:36:00,41.0,38.6,29.42,WNW,293,0.9,1.8,91,0.02,,,0.12,WUHU216HW,2013-02-01 08:36:00,
2013-02-01 08:41:00,41.0,38.6,29.42,West,270,0.2,1.8,91,0.02,,,0.13,WUHU216HW,2013-02-01 08:41:00,
2013-02-01 08:46:00,41.0,38.6,29.42,West,270,0.9,1.1,91,0.02,,,0.13,WUHU216HW,2013-02-01 08:46:00,
2013-02-01 08:51:00,40.9,38.4,29.42,WSW,248,0.4,1.3,91,0.02,,,0.13,WUHU216HW,2013-02-01 08:51:00,
2013-02-01 08:56:00,40.9,38.4,29.42,West,270,0.4,1.3,91,0.02,,,0.13,WUHU216HW,2013-02-01 08:56:00,
2013-02-01 09:01:00,40.9,38.7,29.41,West,270,0.2,1.1,92,0.02,,,0.13,WUHU216HW,2013-02-01 09:01:00,
2013-02-01 09:06:00,40.9,38.7,29.41,West,270,0.2,1.1,92,0.02,,,0.13,WUHU216HW,2013-02-01 09:06:00,
2013-02-01 09:11:00,40.9,38.7,29.41,West,270,0.2,1.1,92,0.01,,,0.13,WUHU216HW,2013-02-01 09:11:00,
2013-02-01 09:16:00,40.9,38.7,29.41,West,270,0.2,0.2,92,0.01,,,0.13,WUHU216HW,2013-02-01 09:16:00,
2013-02-01 09:21:00,40.9,38.7,29.41,West,270,0.2,0.2,92,0.01,,,0.13,WUHU216HW,2013-02-01 09:21:00,
2013-02-01 09:26:00,41.0,38.9,29.40,WNW,293,0.2,1.1,92,0.01,,,0.13,WUHU216HW,2013-02-01 09:26:00,
2013-02-01 09:31:00,41.4,39.2,29.40,WNW,293,1.1,1.1,92,0.01,,,0.13,WUHU216HW,2013-02-01 09:31:00,
2013-02-01 09:36:00,41.2,39.1,29.40,WSW,248,0.4,2.0,92,0.01,,,0.13,WUHU216HW,2013-02-01 09:36:00,
2013-02-01 09:41:00,41.2,38.8,29.40,West,270,0.7,2.0,91,0.00,,,0.13,WUHU216HW,2013-02-01 09:41:00,
2013-02-01 09:46:00,41.2,39.1,29.40,WSW,248,1.6,1.8,92,0.00,,,0.13,WUHU216HW,2013-02-01 09:46:00,
2013-02-01 09:51:00,41.4,39.2,29.40,West,270,2.5,3.4,92,0.00,,,0.13,WUHU216HW,2013-02-01 09:51:00,
2013-02-01 09:56:00,41.4,39.2,29.40,SW,225,1.1,3.4,92,0.00,,,0.13,WUHU216HW,2013-02-01 09:56:00,
2013-02-01 10:01:00,41.4,39.2,29.39,SW,225,1.1,3.4,92,0.00,,,0.13,WUHU216HW,2013-02-01 10:01:00,
2013-02-01 10:06:00,41.6,39.4,29.39,WSW,248,0.0,2.2,92,0.00,,,0.13,WUHU216HW,2013-02-01 10:06:00,
2013-02-01 10:11:00,41.4,39.2,29.39,West,270,0.9,2.2,92,0.00,,,0.13,WUHU216HW,2013-02-01 10:11:00,
2013-02-01 10:16:00,41.4,39.2,29.39,West,270,0.2,2.5,92,0.00,,,0.13,WUHU216HW,2013-02-01 10:16:00,
2013-02-01 10:21:00,41.6,39.4,29.39,West,270,2.9,2.9,92,0.00,,,0.13,WUHU216HW,2013-02-01 10:21:00,
2013-02-01 10:26:00,41.6,39.4,29.39,West,270,0.0,2.9,92,0.00,,,0.13,WUHU216HW,2013-02-01 10:26:00,
2013-02-01 10:31:00,41.8,39.6,29.39,West,270,1.1,2.5,92,0.00,,,0.13,WUHU216HW,2013-02-01 10:31:00,
2013-02-01 10:36:00,41.9,39.5,29.38,West,270,0.7,2.5,91,0.00,,,0.13,WUHU216HW,2013-02-01 10:36:00,
2013-02-01 10:41:00,41.8,39.1,29.38,NW,315,0.4,2.5,90,0.00,,,0.13,WUHU216HW,2013-02-01 10:41:00,
2013-02-01 10:46:00,41.9,39.2,29.38,West,270,2.2,2.5,90,0.00,,,0.13,WUHU216HW,2013-02-01 10:46:00,
2013-02-01 10:51:00,41.9,39.2,29.38,West,270,1.1,3.8,90,0.00,,,0.13,WUHU216HW,2013-02-01 10:51:00,
2013-02-01 10:56:00,42.1,39.4,29.38,West,270,3.4,3.8,90,0.00,,,0.13,WUHU216HW,2013-02-01 10:56:00,
2013-02-01 11:01:00,42.1,39.4,29.38,West,270,2.5,3.4,90,0.00,,,0.13,WUHU216HW,2013-02-01 11:01:00,
2013-02-01 11:06:00,42.3,39.6,29.38,West,270,0.9,3.1,90,0.00,,,0.13,WUHU216HW,2013-02-01 11:06:00,
2013-02-01 11:11:00,42.5,39.8,29.38,WSW,248,1.8,3.1,90,0.00,,,0.13,WUHU216HW,2013-02-01 11:11:00,
2013-02-01 11:16:00,42.5,39.8,29.38,West,270,1.6,2.7,90,0.00,,,0.13,WUHU216HW,2013-02-01 11:16:00,
2013-02-01 11:21:00,42.5,39.8,29.38,NW,315,0.9,2.7,90,0.00,,,0.13,WUHU216HW,2013-02-01 11:21:00,
2013-02-01 11:26:00,42.7,40.0,29.37,West,270,0.7,2.5,90,0.00,,,0.13,WUHU216HW,2013-02-01 11:26:00,
2013-02-01 11:31:00,42.5,39.5,29.37,WSW,248,3.4,4.0,89,0.00,,,0.13,WUHU216HW,2013-02-01 11:31:00,
2013-02-01 11:36:00,42.5,39.5,29.37,West,270,2.5,4.3,89,0.00,,,0.13,WUHU216HW,2013-02-01 11:36:00,
2013-02-01 11:41:00,42.5,39.5,29.37,West,270,0.4,5.1,89,0.00,,,0.13,WUHU216HW,2013-02-01 11:41:00,
2013-02-01 11:46:00,42.8,40.1,29.37,West,270,4.0,5.1,90,0.00,,,0.13,WUHU216HW,2013-02-01 11:46:00,
2013-02-01 11:51:00,42.8,39.9,29.37,WNW,293,1.1,4.0,89,0.00,,,0.13,WUHU216HW,2013-02-01 11:51:00,
2013-02-01 11:56:00,42.8,39.5,29.37,WSW,248,1.1,4.0,88,0.00,,,0.13,WUHU216HW,2013-02-01 11:56:00,
2013-02-01 12:01:00,42.8,39.5,29.37,West,270,1.8,4.0,88,0.00,,,0.13,WUHU216HW,2013-02-01 12:01:00,
2013-02-01 12:06:00,42.8,39.5,29.37,West,270,2.2,3.8,88,0.00,,,0.13,WUHU216HW,2013-02-01 12:06:00,
2013-02-01 12:11:00,43.0,39.7,29.37,West,270,1.6,4.0,88,0.00,,,0.13,WUHU216HW,2013-02-01 12:11:00,
2013-02-01 12:16:00,43.0,39.4,29.36,West,270,1.8,4.0,87,0.00,,,0.13,WUHU216HW,2013-02-01 12:16:00,
2013-02-01 12:21:00,43.0,39.4,29.35,West,270,2.9,4.7,87,0.00,,,0.13,WUHU216HW,2013-02-01 12:21:00,
2013-02-01 12:26:00,43.2,39.6,29.34,West,270,2.5,4.7,87,0.00,,,0.13,WUHU216HW,2013-02-01 12:26:00,
2013-02-01 12:31:00,43.6,40.2,29.35,West,270,4.7,4.7,88,0.00,,,0.13,WUHU216HW,2013-02-01 12:31:00,
2013-02-01 12:36:00,43.7,40.2,29.34,West,270,2.7,4.7,87,0.00,,,0.13,WUHU216HW,2013-02-01 12:36:00,
2013-02-01 12:41:00,44.3,40.7,29.35,West,270,3.4,4.7,87,0.00,,,0.13,WUHU216HW,2013-02-01 12:41:00,
2013-02-01 12:46:00,44.6,41.1,29.35,West,270,3.6,4.0,87,0.00,,,0.13,WUHU216HW,2013-02-01 12:46:00,
2013-02-01 12:51:00,45.0,41.0,29.35,West,270,1.3,4.0,86,0.00,,,0.13,WUHU216HW,2013-02-01 12:51:00,
2013-02-01 12:56:00,45.2,41.0,29.35,West,270,2.9,4.5,85,0.00,,,0.13,WUHU216HW,2013-02-01 12:56:00,
2013-02-01 13:01:00,45.4,41.1,29.35,WSW,248,2.2,4.7,85,0.00,,,0.13,WUHU216HW,2013-02-01 13:01:00,
2013-02-01 13:06:00,45.4,41.1,29.36,WSW,248,4.0,6.7,85,0.00,,,0.13,WUHU216HW,2013-02-01 13:06:00,
2013-02-01 13:11:00,45.4,40.5,29.35,WSW,248,2.5,6.7,83,0.00,,,0.13,WUHU216HW,2013-02-01 13:11:00,
2013-02-01 13:16:00,45.2,40.7,29.35,West,270,2.5,6.0,84,0.00,,,0.13,WUHU216HW,2013-02-01 13:16:00,
2013-02-01 13:21:00,45.0,40.5,29.34,NW,315,3.6,4.0,84,0.00,,,0.13,WUHU216HW,2013-02-01 13:21:00,
2013-02-01 13:26:00,44.6,39.8,29.34,West,270,2.9,5.1,83,0.00,,,0.13,WUHU216HW,2013-02-01 13:26:00,
2013-02-01 13:31:00,44.6,39.8,29.34,West,270,3.6,5.1,83,0.00,,,0.13,WUHU216HW,2013-02-01 13:31:00,
2013-02-01 13:36:00,44.6,39.8,29.35,WSW,248,2.0,5.1,83,0.00,,,0.13,WUHU216HW,2013-02-01 13:36:00,
2013-02-01 13:41:00,44.6,39.8,29.35,West,270,1.1,5.1,83,0.00,,,0.13,WUHU216HW,2013-02-01 13:41:00,
2013-02-01 13:46:00,45.0,40.5,29.35,West,270,0.7,4.9,84,0.00,,,0.13,WUHU216HW,2013-02-01 13:46:00,
2013-02-01 13:51:00,45.4,41.1,29.35,WSW,248,2.2,4.7,85,0.00,,,0.13,WUHU216HW,2013-02-01 13:51:00,
2013-02-01 13:56:00,45.5,40.1,29.35,West,270,4.7,4.7,81,0.00,,,0.13,WUHU216HW,2013-02-01 13:56:00,
2013-02-01 14:01:00,45.2,39.7,29.35,West,270,2.0,7.2,81,0.00,,,0.13,WUHU216HW,2013-02-01 14:01:00,
2013-02-01 14:06:00,45.2,39.7,29.35,West,270,0.4,7.2,81,0.00,,,0.13,WUHU216HW,2013-02-01 14:06:00,
2013-02-01 14:11:00,45.4,39.9,29.35,West,270,1.8,4.0,81,0.00,,,0.13,WUHU216HW,2013-02-01 14:11:00,
2013-02-01 14:16:00,45.4,39.6,29.35,NNW,338,2.2,4.0,80,0.00,,,0.13,WUHU216HW,2013-02-01 14:16:00,
2013-02-01 14:21:00,45.2,39.1,29.34,West,270,4.5,4.5,79,0.00,,,0.13,WUHU216HW,2013-02-01 14:21:00,
2013-02-01 14:26:00,45.0,38.9,29.34,West,270,2.5,4.5,79,0.00,,,0.13,WUHU216HW,2013-02-01 14:26:00,
2013-02-01 14:31:00,45.0,38.9,29.34,WNW,293,4.0,5.4,79,0.00,,,0.13,WUHU216HW,2013-02-01 14:31:00,
2013-02-01 14:36:00,45.0,38.9,29.34,West,270,2.5,5.4,79,0.00,,,0.13,WUHU216HW,2013-02-01 14:36:00,
2013-02-01 14:41:00,45.2,39.1,29.33,WNW,293,2.5,4.0,79,0.00,,,0.13,WUHU216HW,2013-02-01 14:41:00,
2013-02-01 14:46:00,45.2,39.1,29.33,WSW,248,1.3,3.8,79,0.00,,,0.13,WUHU216HW,2013-02-01 14:46:00,
2013-02-01 14:51:00,45.4,39.2,29.33,WNW,293,2.5,5.4,79,0.00,,,0.13,WUHU216HW,2013-02-01 14:51:00,
2013-02-01 14:56:00,45.4,38.9,29.33,WSW,248,2.0,7.2,78,0.00,,,0.13,WUHU216HW,2013-02-01 14:56:00,
2013-02-01 15:01:00,45.4,39.2,29.33,WNW,293,3.1,7.2,79,0.00,,,0.13,WUHU216HW,2013-02-01 15:01:00,
2013-02-01 15:06:00,45.2,39.1,29.33,WSW,248,2.7,4.0,79,0.00,,,0.13,WUHU216HW,2013-02-01 15:06:00,
2013-02-01 15:11:00,45.2,39.1,29.33,WSW,248,2.5,4.3,79,0.00,,,0.13,WUHU216HW,2013-02-01 15:11:00,
2013-02-01 15:16:00,45.0,38.9,29.33,West,270,2.5,4.3,79,0.00,,,0.13,WUHU216HW,2013-02-01 15:16:00,
2013-02-01 15:21:00,45.0,38.5,29.34,West,270,2.9,4.3,78,0.00,,,0.13,WUHU216HW,2013-02-01 15:21:00,
2013-02-01 15:26:00,45.0,38.5,29.34,West,270,2.2,4.3,78,0.00,,,0.13,WUHU216HW,2013-02-01 15:26:00,
2013-02-01 15:31:00,44.8,38.3,29.34,West,270,1.3,4.5,78,0.00,,,0.13,WUHU216HW,2013-02-01 15:31:00,
2013-02-01 15:36:00,44.8,38.3,29.34,West,270,1.3,4.7,78,0.00,,,0.13,WUHU216HW,2013-02-01 15:36:00,
2013-02-01 15:41:00,44.6,38.2,29.34,West,270,1.8,4.7,78,0.00,,,0.13,WUHU216HW,2013-02-01 15:41:00,
2013-02-01 15:46:00,44.5,38.0,29.34,WSW,248,3.1,3.4,78,0.00,,,0.13,WUHU216HW,2013-02-01 15:46:00,
2013-02-01 15:51:00,44.5,38.0,29.34,WSW,248,1.8,3.4,78,0.00,,,0.13,WUHU216HW,2013-02-01 15:51:00,
2013-02-01 15:56:00,44.3,38.2,29.34,NW,315,0.4,3.1,79,0.00,,,0.13,WUHU216HW,2013-02-01 15:56:00,
2013-02-01 16:01:00,44.3,38.2,29.34,West,270,2.5,2.9,79,0.00,,,0.13,WUHU216HW,2013-02-01 16:01:00,
2013-02-01 16:06:00,44.1,38.3,29.34,West,270,1.8,3.1,80,0.00,,,0.13,WUHU216HW,2013-02-01 16:06:00,
2013-02-01 16:11:00,43.9,38.4,29.34,WSW,248,0.4,3.1,81,0.00,,,0.13,WUHU216HW,2013-02-01 16:11:00,
2013-02-01 16:16:00,43.9,38.4,29.33,WSW,248,0.7,2.0,81,0.00,,,0.13,WUHU216HW,2013-02-01 16:16:00,
2013-02-01 16:21:00,43.6,38.1,29.33,NW,315,2.0,2.2,81,0.00,,,0.13,WUHU216HW,2013-02-01 16:21:00,
2013-02-01 16:26:00,43.6,38.4,29.33,West,270,1.3,2.2,82,0.00,,,0.13,WUHU216HW,2013-02-01 16:26:00,
2013-02-01 16:31:00,43.2,38.1,29.33,West,270,0.7,2.2,82,0.00,,,0.13,WUHU216HW,2013-02-01 16:31:00,
2013-02-01 16:36:00,43.0,37.9,29.33,West,270,0.0,1.8,82,0.00,,,0.13,WUHU216HW,2013-02-01 16:36:00,
2013-02-01 16:41:00,42.8,38.0,29.33,WSW,248,0.4,1.6,83,0.00,,,0.13,WUHU216HW,2013-02-01 16:41:00,
2013-02-01 16:46:00,42.8,38.0,29.33,WSW,248,0.2,1.6,83,0.00,,,0.13,WUHU216HW,2013-02-01 16:46:00,
2013-02-01 16:51:00,42.5,37.6,29.33,WSW,248,0.7,1.3,83,0.00,,,0.13,WUHU216HW,2013-02-01 16:51:00,
2013-02-01 16:56:00,42.3,37.4,29.32,WSW,248,0.9,1.3,83,0.00,,,0.13,WUHU216HW,2013-02-01 16:56:00,
2013-02-01 17:01:00,42.3,37.4,29.32,WSW,248,0.0,1.3,83,0.00,,,0.13,WUHU216HW,2013-02-01 17:01:00,
2013-02-01 17:06:00,42.1,37.3,29.32,WSW,248,0.2,0.9,83,0.00,,,0.13,WUHU216HW,2013-02-01 17:06:00,
2013-02-01 17:11:00,41.8,37.3,29.32,WSW,248,0.2,0.7,84,0.00,,,0.13,WUHU216HW,2013-02-01 17:11:00,
2013-02-01 17:16:00,41.4,36.5,29.32,SW,225,1.1,1.1,83,0.00,,,0.13,WUHU216HW,2013-02-01 17:16:00,
2013-02-01 17:21:00,41.2,36.7,29.31,SW,225,0.7,1.1,84,0.00,,,0.13,WUHU216HW,2013-02-01 17:21:00,
2013-02-01 17:26:00,41.0,36.8,29.31,SW,225,0.4,1.3,85,0.00,,,0.13,WUHU216HW,2013-02-01 17:26:00,
2013-02-01 17:31:00,40.9,36.6,29.31,SW,225,0.4,1.3,85,0.00,,,0.13,WUHU216HW,2013-02-01 17:31:00,
2013-02-01 17:36:00,40.7,36.8,29.31,SW,225,0.0,1.1,86,0.00,,,0.13,WUHU216HW,2013-02-01 17:36:00,
2013-02-01 17:41:00,40.7,36.8,29.31,SW,225,0.7,1.6,86,0.00,,,0.13,WUHU216HW,2013-02-01 17:41:00,
2013-02-01 17:46:00,40.7,36.8,29.31,SW,225,0.0,1.6,86,0.00,,,0.13,WUHU216HW,2013-02-01 17:46:00,
2013-02-01 17:51:00,40.7,36.8,29.31,SW,225,0.0,0.4,86,0.00,,,0.13,WUHU216HW,2013-02-01 17:51:00,
2013-02-01 17:56:00,40.7,36.8,29.31,WSW,248,0.7,0.7,86,0.00,,,0.13,WUHU216HW,2013-02-01 17:56:00,
2013-02-01 18:01:00,40.5,36.9,29.31,SW,225,0.4,1.8,87,0.00,,,0.13,WUHU216HW,2013-02-01 18:01:00,
2013-02-01 18:06:00,40.5,36.9,29.31,WSW,248,0.4,1.8,87,0.00,,,0.13,WUHU216HW,2013-02-01 18:06:00,
2013-02-01 18:11:00,40.5,36.9,29.31,SW,225,0.0,1.8,87,0.00,,,0.13,WUHU216HW,2013-02-01 18:11:00,
2013-02-01 18:16:00,40.5,36.9,29.31,West,270,0.4,1.1,87,0.00,,,0.13,WUHU216HW,2013-02-01 18:16:00,
2013-02-01 18:21:00,40.5,36.9,29.31,SW,225,0.0,1.1,87,0.00,,,0.13,WUHU216HW,2013-02-01 18:21:00,
2013-02-01 18:26:00,40.3,36.7,29.31,SW,225,0.4,1.1,87,0.00,,,0.13,WUHU216HW,2013-02-01 18:26:00,
2013-02-01 18:31:00,40.5,37.2,29.31,SW,225,0.0,1.1,88,0.00,,,0.13,WUHU216HW,2013-02-01 18:31:00,
2013-02-01 18:36:00,40.5,36.9,29.31,SW,225,0.4,0.7,87,0.00,,,0.13,WUHU216HW,2013-02-01 18:36:00,
2013-02-01 18:41:00,40.5,37.2,29.31,WSW,248,0.2,1.1,88,0.00,,,0.13,WUHU216HW,2013-02-01 18:41:00,
2013-02-01 18:46:00,40.7,37.1,29.32,WSW,248,0.0,1.1,87,0.00,,,0.13,WUHU216HW,2013-02-01 18:46:00,
2013-02-01 18:51:00,40.7,37.1,29.32,WSW,248,0.4,0.4,87,0.00,,,0.13,WUHU216HW,2013-02-01 18:51:00,
2013-02-01 18:56:00,40.7,37.4,29.31,West,270,0.9,1.1,88,0.00,,,0.13,WUHU216HW,2013-02-01 18:56:00,
2013-02-01 19:01:00,40.7,37.4,29.32,WSW,248,0.4,1.1,88,0.00,,,0.13,WUHU216HW,2013-02-01 19:01:00,
2013-02-01 19:06:00,40.7,37.4,29.32,WSW,248,0.4,1.3,88,0.00,,,0.13,WUHU216HW,2013-02-01 19:06:00,
2013-02-01 19:11:00,40.7,37.4,29.32,West,270,1.1,2.0,88,0.00,,,0.13,WUHU216HW,2013-02-01 19:11:00,
2013-02-01 19:16:00,40.7,37.4,29.32,West,270,0.7,2.7,88,0.00,,,0.13,WUHU216HW,2013-02-01 19:16:00,
2013-02-01 19:21:00,40.7,37.4,29.33,WSW,248,0.4,2.7,88,0.00,,,0.13,WUHU216HW,2013-02-01 19:21:00,
2013-02-01 19:26:00,40.9,37.5,29.33,WSW,248,0.0,2.5,88,0.00,,,0.13,WUHU216HW,2013-02-01 19:26:00,
2013-02-01 19:31:00,40.9,37.3,29.33,WSW,248,0.0,1.1,87,0.00,,,0.13,WUHU216HW,2013-02-01 19:31:00,
2013-02-01 19:36:00,40.9,37.3,29.34,West,270,1.6,1.6,87,0.00,,,0.13,WUHU216HW,2013-02-01 19:36:00,
2013-02-01 19:41:00,40.9,37.3,29.34,WSW,248,0.0,1.6,87,0.00,,,0.13,WUHU216HW,2013-02-01 19:41:00,
2013-02-01 19:46:00,40.7,37.1,29.34,WSW,248,0.2,1.6,87,0.00,,,0.13,WUHU216HW,2013-02-01 19:46:00,
2013-02-01 19:51:00,40.7,37.1,29.34,WSW,248,0.0,0.7,87,0.00,,,0.13,WUHU216HW,2013-02-01 19:51:00,
2013-02-01 19:56:00,40.7,37.4,29.34,SSW,203,0.2,0.7,88,0.00,,,0.13,WUHU216HW,2013-02-01 19:56:00,
2013-02-01 20:01:00,40.5,37.2,29.34,SSW,203,0.0,0.7,88,0.00,,,0.13,WUHU216HW,2013-02-01 20:01:00,
2013-02-01 20:06:00,40.5,37.2,29.34,SSW,203,0.0,1.6,88,0.00,,,0.13,WUHU216HW,2013-02-01 20:06:00,
2013-02-01 20:11:00,40.5,37.2,29.34,SSW,203,1.1,1.6,88,0.00,,,0.13,WUHU216HW,2013-02-01 20:11:00,
2013-02-01 20:16:00,40.5,37.2,29.34,SSW,203,0.0,1.1,88,0.00,,,0.13,WUHU216HW,2013-02-01 20:16:00,
2013-02-01 20:21:00,40.3,37.0,29.34,SSW,203,0.0,0.7,88,0.00,,,0.13,WUHU216HW,2013-02-01 20:21:00,
2013-02-01 20:26:00,40.1,36.8,29.34,SSW,203,0.0,0.2,88,0.00,,,0.13,WUHU216HW,2013-02-01 20:26:00,
2013-02-01 20:31:00,40.1,36.8,29.34,SSW,203,0.0,0.2,88,0.00,,,0.13,WUHU216HW,2013-02-01 20:31:00,
2013-02-01 20:36:00,40.0,36.6,29.34,SSW,203,0.0,0.2,88,0.00,,,0.13,WUHU216HW,2013-02-01 20:36:00,
2013-02-01 20:41:00,39.8,36.5,29.34,SSW,203,0.2,0.2,88,0.00,,,0.13,WUHU216HW,2013-02-01 20:41:00,
2013-02-01 20:46:00,39.6,36.4,29.35,SSW,203,0.0,0.4,88,0.00,,,0.13,WUHU216HW,2013-02-01 20:46:00,
2013-02-01 20:51:00,39.4,36.2,29.35,SSW,203,0.0,0.4,88,0.00,,,0.13,WUHU216HW,2013-02-01 20:51:00,
2013-02-01 20:56:00,39.4,36.5,29.35,SSW,203,0.0,0.4,89,0.00,,,0.13,WUHU216HW,2013-02-01 20:56:00,
2013-02-01 21:01:00,39.2,36.3,29.35,SSW,203,0.0,0.4,89,0.00,,,0.13,WUHU216HW,2013-02-01 21:01:00,
2013-02-01 21:06:00,39.2,36.3,29.36,SSW,203,0.0,0.2,89,0.00,,,0.13,WUHU216HW,2013-02-01 21:06:00,
2013-02-01 21:11:00,39.2,36.3,29.36,SSW,203,0.0,0.2,89,0.00,,,0.13,WUHU216HW,2013-02-01 21:11:00,
2013-02-01 21:16:00,39.2,36.3,29.36,SSW,203,0.0,0.2,89,0.00,,,0.13,WUHU216HW,2013-02-01 21:16:00,
2013-02-01 21:21:00,39.2,36.3,29.37,SSW,203,0.0,0.2,89,0.00,,,0.13,WUHU216HW,2013-02-01 21:21:00,
2013-02-01 21:26:00,39.2,36.5,29.36,SSW,203,0.0,0.0,90,0.00,,,0.13,WUHU216HW,2013-02-01 21:26:00,
2013-02-01 21:31:00,39.2,36.5,29.37,SSW,203,0.0,0.0,90,0.00,,,0.13,WUHU216HW,2013-02-01 21:31:00,
2013-02-01 21:36:00,39.2,36.5,29.37,SSW,203,0.0,0.2,90,0.00,,,0.13,WUHU216HW,2013-02-01 21:36:00,
2013-02-01 21:41:00,39.2,36.5,29.37,SSW,203,0.0,0.2,90,0.00,,,0.13,WUHU216HW,2013-02-01 21:41:00,
2013-02-01 21:46:00,39.1,36.4,29.38,SSW,203,0.0,0.0,90,0.00,,,0.13,WUHU216HW,2013-02-01 21:46:00,
2013-02-01 21:51:00,39.1,36.4,29.38,SSW,203,0.0,0.0,90,0.00,,,0.13,WUHU216HW,2013-02-01 21:51:00,
2013-02-01 21:56:00,38.9,36.2,29.38,SSW,203,0.0,0.2,90,0.00,,,0.13,WUHU216HW,2013-02-01 21:56:00,
2013-02-01 22:01:00,38.9,36.5,29.39,SSW,203,0.0,0.4,91,0.00,,,0.13,WUHU216HW,2013-02-01 22:01:00,
2013-02-01 22:06:00,38.9,36.5,29.39,WNW,293,0.4,0.4,91,0.00,,,0.13,WUHU216HW,2013-02-01 22:06:00,
2013-02-01 22:11:00,38.9,36.2,29.39,WNW,293,0.0,0.4,90,0.00,,,0.13,WUHU216HW,2013-02-01 22:11:00,
2013-02-01 22:16:00,38.9,36.2,29.39,WNW,293,0.0,0.4,90,0.00,,,0.13,WUHU216HW,2013-02-01 22:16:00,
2013-02-01 22:21:00,38.5,36.1,29.40,WNW,293,0.0,0.0,91,0.00,,,0.13,WUHU216HW,2013-02-01 22:21:00,
2013-02-01 22:26:00,38.5,35.8,29.40,WNW,293,0.0,0.2,90,0.00,,,0.13,WUHU216HW,2013-02-01 22:26:00,
2013-02-01 22:31:00,38.3,35.9,29.40,WNW,293,0.0,0.2,91,0.00,,,0.13,WUHU216HW,2013-02-01 22:31:00,
2013-02-01 22:36:00,38.2,35.7,29.40,WNW,293,0.2,0.2,91,0.00,,,0.13,WUHU216HW,2013-02-01 22:36:00,
2013-02-01 22:41:00,38.0,35.6,29.41,West,270,1.1,1.1,91,0.00,,,0.13,WUHU216HW,2013-02-01 22:41:00,
2013-02-01 22:46:00,38.2,36.0,29.41,West,270,0.4,1.1,92,0.00,,,0.13,WUHU216HW,2013-02-01 22:46:00,
2013-02-01 22:51:00,38.3,36.2,29.41,West,270,0.0,1.1,92,0.00,,,0.13,WUHU216HW,2013-02-01 22:51:00,
2013-02-01 22:56:00,38.5,36.4,29.42,West,270,0.0,1.3,92,0.00,,,0.13,WUHU216HW,2013-02-01 22:56:00,
2013-02-01 23:01:00,38.7,36.5,29.42,West,270,0.4,1.3,92,0.00,,,0.13,WUHU216HW,2013-02-01 23:01:00,
2013-02-01 23:06:00,38.9,36.7,29.42,WNW,293,0.2,0.7,92,0.00,,,0.13,WUHU216HW,2013-02-01 23:06:00,
2013-02-01 23:11:00,38.9,36.7,29.43,WNW,293,1.3,1.3,92,0.00,,,0.13,WUHU216HW,2013-02-01 23:11:00,
2013-02-01 23:16:00,38.9,37.0,29.43,WSW,248,0.0,1.3,93,0.00,,,0.13,WUHU216HW,2013-02-01 23:16:00,
2013-02-01 23:21:00,38.9,36.5,29.43,WSW,248,0.4,1.3,91,0.00,,,0.13,WUHU216HW,2013-02-01 23:21:00,
2013-02-01 23:26:00,38.9,36.5,29.43,WNW,293,0.2,1.1,91,0.00,,,0.13,WUHU216HW,2013-02-01 23:26:00,
2013-02-01 23:31:00,38.9,36.7,29.43,NW,315,0.7,1.3,92,0.00,,,0.13,WUHU216HW,2013-02-01 23:31:00,
2013-02-01 23:36:00,38.9,36.7,29.44,West,270,0.7,1.3,92,0.00,,,0.13,WUHU216HW,2013-02-01 23:36:00,
2013-02-01 23:41:00,39.2,37.1,29.44,West,270,1.8,1.8,92,0.00,,,0.13,WUHU216HW,2013-02-01 23:41:00,
2013-02-01 23:46:00,39.4,37.3,29.44,NW,315,1.8,2.7,92,0.00,,,0.13,WUHU216HW,2013-02-01 23:46:00,
2013-02-01 23:51:00,39.6,37.2,29.45,WNW,293,1.8,3.4,91,0.00,,,0.13,WUHU216HW,2013-02-01 23:51:00,
2013-02-01 23:56:00,39.6,37.2,29.45,NNW,338,1.3,3.4,91,0.00,,,0.13,WUHU216HW,2013-02-01 23:56:00,